Location: Newark
(35.2672°N, 80.7344°W)
Time: 14:57:58
(UTC+00:00)

Tiros 1 - Pass Details

Date: 23 January 2020
Orbit: 631 x 664 km, 48.4° (Epoch: 23 February)

Event Time Altitude Azimuth Distance (km) Brightness Sun altitude
Rises 19:59:55 0° 275° (W) 2,943 11.0 25.4°
Reaches altitude 10° 20:02:40 10° 290° (WNW) 2,041 10.0 25.0°
Maximum altitude 20:06:23 23° 342° (NNW) 1,394 8.7 24.6°
Drops below altitude 10° 20:10:08 10° 35° (NE) 2,061 9.2 24.1°
Sets 20:12:57 0° 50° (NE) 2,980 10.0 23.7°
